{"data":{"norad_id":55654,"intl_designator":"2023-021AC","name":"STARLINK-5070","alt_names":[],"object_type":"PAYLOAD","status":"ACTIVE","operator":null,"country":"US","launch_date":"2023-02-17","launch_site_code":"AFWTR","launch_vehicle":null,"mission":null,"orbit_class":"UNKNOWN","rcs_meters":null,"size_class":null,"mass_kg":null,"dimensions":null,"purposes":["comms"],"wikipedia_slug":null,"has_3d_model":false,"image_url":null,"decayed_at":null,"tle_current":{"epoch":"2026-05-24T23:18:45.376128Z","epoch_age_seconds":73692,"freshness":"FRESH","line1":"1 55654U 23021AC  26144.97135852  .00000352  00000+0  37326-4 0  9994","line2":"2 55654  69.9999 352.2857 0002711 264.5724  95.5126 14.98330464180213","mean_motion":14.98330464,"eccentricity":0.0002711,"inclination_deg":69.9999,"raan_deg":352.2857,"arg_perigee_deg":264.5724,"mean_anomaly_deg":95.5126,"bstar":3.7326e-5,"rev_number":18021,"period_min":96.106969363469,"perigee_km":570.17025915932,"apogee_km":573.9386529668,"semimajor_km":6950.1914560631,"source":"CELESTRAK","updated_at":"2026-05-25T13:38:17.871785Z"}}}